Regional Weather Roundup
Issued by NWS Cleveland, OH

Home | Current Version | Previous Version | Graphics & Text | Print | Product List | Glossary On
Versions: 1 2 3 4 5 6 7 8 9 10 11 12 13 14 15 16 17 18 19 20 21 22 23 24 25 26 27 28 29 30 31 32 33 34 35 36 37 38 39 40 41 42 43 44 45 46 47 48 49 50
000
ASUS41 KCLE 310602
RWRCLE
OHIO REGIONAL WEATHER ROUNDUP
NATIONAL WEATHER SERVICE CLEVELAND, OH
200 AM EDT FRI JUL 31 2015

NOTE: "FAIR" INDICATES FEW OR NO CLOUDS BELOW 12,000 FEET WITH NO
SIGNIFICANT WEATHER AND/OR OBSTRUCTIONS TO VISIBILITY.

OHZ001>008-015>018-024>027-034-035-043-044-310700-
   NORTHWEST OHIO

CITY           SKY/WX    TMP DP  RH WIND       PRES   REMARKS
DEFIANCE       CLEAR     65  58  78 CALM      30.01S
FINDLAY        CLEAR     65  57  75 SW6       30.00F
TOLEDO EXPRESS CLEAR     68  57  68 SW7       29.99F
TOLEDO EXEC    CLEAR     68  58  70 SW6       29.99F
LIMA           CLEAR     64  58  80 CALM      30.03F
$$

OHZ009>014-019>023-028>033-038-089-310700-
   NORTHEAST OHIO

CITY           SKY/WX    TMP DP  RH WIND       PRES   REMARKS
CLE-HOPKINS    CLEAR     67  58  72 SW6       30.00F
CLE-LAKEFRONT  CLEAR     75  64  68 W12       29.96S
CUY CO. ARPT   NOT AVBL
LORAIN-ELYRIA  CLEAR     64  57  78 W6        29.99F
ASHTABULA      PTCLDY    66  61  84 CALM      29.97S
AKRON-CANTON   CLEAR     67  57  70 W6        30.01S
WOOSTER        CLEAR     59  56  89 CALM      30.02S
MANSFIELD      CLEAR     68  56  65 W7        30.03S
YOUNGSTOWN     MOCLDY    66  58  75 W6        29.99S
$$

OHZ042-051>053-060>062-070>072-077>081-310700-
  SOUTHWEST OHIO

CITY           SKY/WX    TMP DP  RH WIND       PRES   REMARKS
CINC-COVINGTON CLEAR     71  62  73 CALM      30.07F
CINC-LUNKEN    CLEAR     64  63  96 CALM      30.07S
HAMILTON       CLEAR     65  63  93 CALM      30.07F
DAYTON         CLEAR     64  58  80 W6        30.06F
WRIGHT-PAT AFB CLEAR     66  61  82 S2        30.05F
DAYTON GENERAL CLEAR     67  60  78 CALM      30.06F
WILMINGTON     CLEAR     64  60  87 SW3       30.06F
$$

OHZ036-037-039>041-045>050-054>059-063>069-073>076-082>088-310700-
  CENTRAL AND SOUTHEAST OHIO

CITY           SKY/WX    TMP DP  RH WIND       PRES   REMARKS
COLUMBUS       CLEAR     71  58  63 CALM      30.03F
OSU AIRPORT    CLEAR     66  59  78 W6        30.04S
BOLTON FIELD   NOT AVBL
RICKENBACK AFB NOT AVBL
NEWARK         CLEAR     62  59  90 CALM      30.03F
MARION         CLEAR     66  56  70 W6        30.03S
LANCASTER      CLEAR     60  57  89 CALM      30.04F
ZANESVILLE     CLEAR     63  59  87 CALM      30.03S
NEW PHILLY     CLEAR     60  59  96 CALM      30.02F
$$


USA.gov is the U.S. government's official web portal to all federal, state and local government web resources and services.